Hourly Weather Zhuravlevka

Today, 15 July, Wednesday

Time Temperature Precipitation Wind Pressure Humidity
00:00 +15°C° 0 mm 5 mps 726 mmHg 94%
01:00 +15°C° 0 mm 5 mps 726 mmHg 93%
02:00 +15°C° 0 mm 6 mps 726 mmHg 93%
03:00 +15°C° 0 mm 6 mps 726 mmHg 92%
04:00 +15°C° 0 mm 6 mps 726 mmHg 91%
05:00 +15°C° 0 mm 6 mps 726 mmHg 91%
06:00 +15°C° 0 mm 6 mps 726 mmHg 90%
07:00 +15°C° 0.1 mm 7 mps 726 mmHg 89%
08:00 +15°C° 0.1 mm 7 mps 727 mmHg 87%
09:00 +15°C° 0.1 mm 7 mps 727 mmHg 86%
10:00 +15°C° 0.3 mm 7 mps 727 mmHg 86%
11:00 +14°C° 0.3 mm 7 mps 727 mmHg 86%
12:00 +13°C° 0.3 mm 8 mps 727 mmHg 86%
13:00 +12°C° 0.4 mm 8 mps 728 mmHg 88%
14:00 +12°C° 0.4 mm 8 mps 728 mmHg 90%
15:00 +11°C° 0.4 mm 8 mps 728 mmHg 91%
16:00 +11°C° 0.5 mm 7 mps 728 mmHg 92%
17:00 +11°C° 0.5 mm 7 mps 728 mmHg 93%
18:00 +11°C° 0.5 mm 6 mps 729 mmHg 94%
19:00 +11°C° 0.2 mm 6 mps 729 mmHg 95%
20:00 +11°C° 0.2 mm 6 mps 729 mmHg 95%
21:00 +11°C° 0.2 mm 6 mps 730 mmHg 95%
22:00 +11°C° 0.5 mm 6 mps 730 mmHg 95%
23:00 +13°C° 0.5 mm 6 mps 730 mmHg 96%

Tomorrow, 16 July, Thursday

Time Temperature Precipitation Wind Pressure Humidity
00:00 +13°C° 0.5 mm 5 mps 730 mmHg 96%
01:00 +13°C° 0.4 mm 6 mps 730 mmHg 96%
02:00 +13°C° 0.4 mm 6 mps 730 mmHg 96%
03:00 +13°C° 0.4 mm 6 mps 731 mmHg 96%
04:00 +13°C° 0.3 mm 6 mps 731 mmHg 96%
05:00 +11°C° 0.3 mm 6 mps 731 mmHg 95%
06:00 +11°C° 0.3 mm 6 mps 731 mmHg 95%
07:00 +11°C° 0.1 mm 6 mps 732 mmHg 95%
08:00 +11°C° 0.1 mm 6 mps 732 mmHg 95%
09:00 +11°C° 0.1 mm 6 mps 732 mmHg 94%
10:00 +11°C° 0.1 mm 6 mps 733 mmHg 94%
11:00 +11°C° 0.1 mm 6 mps 733 mmHg 94%
12:00 +13°C° 0.1 mm 6 mps 734 mmHg 94%
13:00 +13°C° 0.1 mm 5 mps 734 mmHg 93%
14:00 +13°C° 0.1 mm 5 mps 734 mmHg 92%
15:00 +14°C° 0.1 mm 5 mps 735 mmHg 92%
16:00 +14°C° 0.1 mm 5 mps 735 mmHg 91%
17:00 +14°C° 0.1 mm 5 mps 735 mmHg 90%
18:00 +14°C° 0.1 mm 4 mps 735 mmHg 89%
19:00 +14°C° 0 mm 4 mps 735 mmHg 91%
20:00 +13°C° 0 mm 4 mps 735 mmHg 92%
21:00 +13°C° 0 mm 3 mps 736 mmHg 93%
22:00 +13°C° 0 mm 3 mps 736 mmHg 94%
23:00 +13°C° 0 mm 3 mps 736 mmHg 94%

Day after tomorrow, 17 July, Friday

Time Temperature Precipitation Wind Pressure Humidity
00:00 +12°C° 0 mm 3 mps 736 mmHg 95%
01:00 +12°C° 0 mm 3 mps 736 mmHg 95%
02:00 +11°C° 0 mm 3 mps 736 mmHg 96%
03:00 +11°C° 0 mm 3 mps 736 mmHg 96%
04:00 +12°C° 0 mm 3 mps 736 mmHg 96%
05:00 +12°C° 0 mm 3 mps 736 mmHg 95%
06:00 +12°C° 0 mm 3 mps 736 mmHg 95%
07:00 +14°C° 0 mm 3 mps 737 mmHg 90%
08:00 +16°C° 0 mm 3 mps 737 mmHg 85%
09:00 +18°C° 0 mm 3 mps 737 mmHg 80%
10:00 +18°C° 0.2 mm 4 mps 737 mmHg 77%
11:00 +19°C° 0.2 mm 4 mps 737 mmHg 73%
12:00 +20°C° 0.2 mm 4 mps 737 mmHg 70%
13:00 +20°C° 0 mm 4 mps 737 mmHg 69%
14:00 +21°C° 0 mm 5 mps 737 mmHg 69%
15:00 +21°C° 0 mm 5 mps 737 mmHg 68%
16:00 +21°C° 0.3 mm 4 mps 738 mmHg 71%
17:00 +20°C° 0.3 mm 4 mps 738 mmHg 75%
18:00 +20°C° 0.3 mm 3 mps 738 mmHg 78%
19:00 +18°C° 0.1 mm 3 mps 738 mmHg 82%
20:00 +17°C° 0.1 mm 2 mps 738 mmHg 86%
21:00 +16°C° 0.1 mm 2 mps 738 mmHg 90%
22:00 +15°C° 0 mm 2 mps 738 mmHg 91%
23:00 +15°C° 0 mm 2 mps 739 mmHg 92%

18 July, Saturday

Time Temperature Precipitation Wind Pressure Humidity
00:00 +14°C° 0 mm 2 mps 739 mmHg 93%
01:00 +14°C° 0 mm 2 mps 739 mmHg 93%
02:00 +14°C° 0 mm 2 mps 739 mmHg 93%
03:00 +13°C° 0 mm 2 mps 739 mmHg 94%
04:00 +14°C° 0 mm 2 mps 740 mmHg 94%
05:00 +14°C° 0 mm 2 mps 740 mmHg 93%
06:00 +14°C° 0 mm 2 mps 740 mmHg 93%
07:00 +16°C° 0 mm 2 mps 740 mmHg 88%
08:00 +17°C° 0 mm 2 mps 741 mmHg 84%
09:00 +19°C° 0 mm 2 mps 741 mmHg 79%
10:00 +20°C° 0 mm 2 mps 741 mmHg 75%
11:00 +21°C° 0 mm 2 mps 741 mmHg 71%
12:00 +22°C° 0 mm 3 mps 741 mmHg 67%
13:00 +22°C° 0 mm 3 mps 741 mmHg 66%
14:00 +22°C° 0 mm 3 mps 741 mmHg 64%
15:00 +24°C° 0 mm 2 mps 741 mmHg 63%
16:00 +24°C° 0 mm 2 mps 741 mmHg 65%
17:00 +24°C° 0 mm 2 mps 741 mmHg 68%
18:00 +23°C° 0 mm 2 mps 741 mmHg 71%
19:00 +21°C° 0 mm 2 mps 741 mmHg 75%
20:00 +19°C° 0 mm 2 mps 741 mmHg 79%
21:00 +18°C° 0 mm 2 mps 741 mmHg 83%
22:00 +17°C° 0 mm 2 mps 741 mmHg 85%
23:00 +16°C° 0 mm 2 mps 741 mmHg 87%

19 July, Sunday

Time Temperature Precipitation Wind Pressure Humidity
00:00 +16°C° 0 mm 2 mps 741 mmHg 89%
01:00 +15°C° 0 mm 2 mps 741 mmHg 90%
02:00 +15°C° 0 mm 2 mps 742 mmHg 91%
03:00 +14°C° 0 mm 2 mps 742 mmHg 92%
04:00 +15°C° 0 mm 2 mps 742 mmHg 91%
05:00 +15°C° 0 mm 2 mps 742 mmHg 90%
06:00 +15°C° 0 mm 1 mps 742 mmHg 89%
07:00 +17°C° 0 mm 2 mps 742 mmHg 83%
08:00 +18°C° 0 mm 2 mps 742 mmHg 77%
09:00 +20°C° 0 mm 2 mps 742 mmHg 71%
10:00 +21°C° 0 mm 2 mps 742 mmHg 67%
11:00 +23°C° 0 mm 2 mps 742 mmHg 62%
12:00 +24°C° 0 mm 2 mps 742 mmHg 58%
13:00 +24°C° 0 mm 2 mps 741 mmHg 57%
14:00 +25°C° 0 mm 2 mps 741 mmHg 56%
15:00 +25°C° 0 mm 2 mps 741 mmHg 55%
16:00 +25°C° 0 mm 2 mps 741 mmHg 59%
17:00 +25°C° 0 mm 2 mps 740 mmHg 63%
18:00 +24°C° 0 mm 2 mps 740 mmHg 67%
19:00 +23°C° 0 mm 2 mps 740 mmHg 70%
20:00 +21°C° 0 mm 1 mps 740 mmHg 73%
21:00 +19°C° 0 mm 1 mps 740 mmHg 76%
22:00 +18°C° 0 mm 1 mps 740 mmHg 79%
23:00 +18°C° 0 mm 1 mps 740 mmHg 81%

20 July, Monday

Time Temperature Precipitation Wind Pressure Humidity
00:00 +16°C° 0 mm 1 mps 739 mmHg 83%
01:00 +16°C° 0 mm 1 mps 739 mmHg 85%
02:00 +15°C° 0 mm 1 mps 739 mmHg 87%
03:00 +15°C° 0 mm 1 mps 739 mmHg 89%
04:00 +15°C° 0 mm 1 mps 739 mmHg 89%
05:00 +16°C° 0 mm 1 mps 739 mmHg 89%
06:00 +16°C° 0 mm 1 mps 739 mmHg 89%
07:00 +19°C° 0 mm 1 mps 739 mmHg 84%
08:00 +19°C° 0 mm 2 mps 739 mmHg 80%
09:00 +20°C° 0 mm 2 mps 739 mmHg 75%
10:00 +21°C° 0 mm 2 mps 738 mmHg 71%
11:00 +23°C° 0 mm 2 mps 738 mmHg 67%
12:00 +24°C° 0 mm 2 mps 738 mmHg 63%
13:00 +24°C° 0 mm 2 mps 738 mmHg 62%
14:00 +24°C° 0 mm 2 mps 738 mmHg 62%
15:00 +25°C° 0 mm 2 mps 737 mmHg 61%
16:00 +24°C° 0.1 mm 2 mps 737 mmHg 64%
17:00 +24°C° 0.1 mm 2 mps 737 mmHg 67%
18:00 +24°C° 0.1 mm 2 mps 737 mmHg 70%
19:00 +21°C° 0 mm 2 mps 737 mmHg 75%
20:00 +19°C° 0 mm 2 mps 737 mmHg 80%
21:00 +18°C° 0 mm 2 mps 737 mmHg 85%
22:00 +17°C° 0 mm 2 mps 737 mmHg 87%
23:00 +16°C° 0 mm 2 mps 737 mmHg 88%
Show more